This is the latest recevied weather packets stored in our database for station/object HF3P-11. If no packets are shown the sender has not sent any weather packets the latest 10 day(s).
| Time | Temp. | Humidity | Pressure | Rain* | Wind** | Luminosity | Snow |
|---|---|---|---|---|---|---|---|
| 1778023208 | 11.11° C | 92% | 999.4 hPa | 0 mm | - | - | - |
| 1778022900 | 11.11° C | 92% | 999.5 hPa | 0 mm | - | - | - |
| 1778022600 | 11.11° C | 91% | 999.6 hPa | 0 mm | - | - | - |
| 1778022300 | 11.11° C | 91% | 999.7 hPa | 0 mm | - | - | - |
| 1778022008 | 11.11° C | 91% | 999.7 hPa | 0 mm | - | - | - |
| 1778021710 | 11.11° C | 91% | 999.5 hPa | 0 mm | - | - | - |
| 1778021401 | 11.11° C | 91% | 999.8 hPa | 0 mm | - | - | - |
| 1778021108 | 11.11° C | 90% | 999.8 hPa | 0 mm | - | - | - |
| 1778020801 | 11.67° C | 90% | 999.8 hPa | 0 mm | - | - | - |
| 1778020501 | 11.67° C | 90% | 999.8 hPa | 0 mm | - | - | - |
| 1778020209 | 11.67° C | 89% | 999.8 hPa | 0 mm | - | - | - |
| 1778019901 | 11.67° C | 89% | 999.9 hPa | 0 mm | - | - | - |
| 1778019601 | 11.67° C | 88% | 999.9 hPa | 0 mm | - | - | - |
| 1778019300 | 11.67° C | 88% | 999.9 hPa | 0 mm | - | - | - |
| 1778019001 | 11.67° C | 88% | 999.9 hPa | 0 mm | - | - | - |
| 1778018700 | 12.22° C | 87% | 1000.3 hPa | 0 mm | - | - | - |
| 1778018409 | 12.22° C | 87% | 1000.2 hPa | 0 mm | - | - | - |
| 1778018108 | 12.22° C | 87% | 1000.1 hPa | 0 mm | - | - | - |
| 1778017811 | 25.56° C | 87% | 1000.2 hPa | 0 mm | - | - | - |
| 1778017509 | 12.22° C | 86% | 1000.2 hPa | 0 mm | - | - | - |
| 1778017210 | 12.22° C | 86% | 1000.2 hPa | 0 mm | - | - | - |
| 1778016909 | 11.11° C | 86% | 1000.2 hPa | 0 mm | - | - | - |
| 1778016608 | 12.22° C | 86% | 1000.3 hPa | 0 mm | - | - | - |
| 1778016311 | 20° C | 86% | 1000.1 hPa | 0 mm | - | - | - |
| 1778016009 | 20.56° C | 86% | 1000.1 hPa | 0 mm | - | - | - |
* Rain latest hour (hover to see other rain measurements)
** Current wind speed in m/s (hover to see current wind gust speed)